Year,Month,Day,Hour,Minute,Value (Times are PST for temperature in C)
2019,05,27,00,00,17.80
2019,05,27,00,01,17.80
2019,05,27,00,02,17.80
2019,05,27,00,03,17.80
2019,05,27,00,04,17.80
2019,05,27,00,05,17.80
2019,05,27,00,06,17.80
2019,05,27,00,07,17.80
2019,05,27,00,08,17.80
2019,05,27,00,09,17.70
2019,05,27,00,10,17.70
2019,05,27,00,11,17.70
2019,05,27,00,12,17.70
2019,05,27,00,13,17.70
2019,05,27,00,14,17.70
2019,05,27,00,15,17.60
2019,05,27,00,16,17.60
2019,05,27,00,17,17.60
2019,05,27,00,18,17.60
2019,05,27,00,19,17.50
2019,05,27,00,20,17.50
2019,05,27,00,21,17.40
2019,05,27,00,22,17.40
2019,05,27,00,23,17.40
2019,05,27,00,24,17.40
2019,05,27,00,25,17.30
2019,05,27,00,26,17.30
2019,05,27,00,27,17.30
2019,05,27,00,28,17.30
2019,05,27,00,29,17.30
2019,05,27,00,30,17.30
2019,05,27,00,31,17.20
2019,05,27,00,32,17.20
2019,05,27,00,33,17.20
2019,05,27,00,34,17.20
2019,05,27,00,35,17.20
2019,05,27,00,36,17.20
2019,05,27,00,37,17.20
2019,05,27,00,38,17.20
2019,05,27,00,39,17.20
2019,05,27,00,40,17.10
2019,05,27,00,41,17.10
2019,05,27,00,42,17.10
2019,05,27,00,43,17.10
2019,05,27,00,44,17.10
2019,05,27,00,45,17.10
2019,05,27,00,46,17.10
2019,05,27,00,47,17.10
2019,05,27,00,48,17.10
2019,05,27,00,49,17.10
2019,05,27,00,50,17.00
2019,05,27,00,51,17.00
2019,05,27,00,52,17.00
2019,05,27,00,53,17.00
2019,05,27,00,54,17.00
2019,05,27,00,55,17.00
2019,05,27,00,56,17.00
2019,05,27,00,57,17.00
2019,05,27,00,58,17.00
2019,05,27,00,59,16.90
2019,05,27,01,00,16.90
2019,05,27,01,01,16.90
2019,05,27,01,02,16.90
2019,05,27,01,03,16.90
2019,05,27,01,04,16.90
2019,05,27,01,05,16.90
2019,05,27,01,06,16.90
2019,05,27,01,07,16.90
2019,05,27,01,08,16.90
2019,05,27,01,09,16.90
2019,05,27,01,10,16.90
2019,05,27,01,11,16.80
2019,05,27,01,12,16.80
2019,05,27,01,13,16.80
2019,05,27,01,14,16.80
2019,05,27,01,15,16.80
2019,05,27,01,16,16.80
2019,05,27,01,17,16.80
2019,05,27,01,18,16.80
2019,05,27,01,19,16.80
2019,05,27,01,20,16.80
2019,05,27,01,21,16.80
2019,05,27,01,22,16.80
2019,05,27,01,23,16.80
2019,05,27,01,24,16.80
2019,05,27,01,25,16.80
2019,05,27,01,26,16.80
2019,05,27,01,27,16.80
2019,05,27,01,28,16.80
2019,05,27,01,29,16.80
2019,05,27,01,30,16.80
2019,05,27,01,31,16.80
2019,05,27,01,32,16.80
2019,05,27,01,33,16.80
2019,05,27,01,34,16.80
2019,05,27,01,35,16.80
2019,05,27,01,36,16.90
2019,05,27,01,37,16.90
2019,05,27,01,38,16.90
2019,05,27,01,39,16.90
2019,05,27,01,40,16.90
2019,05,27,01,41,16.90
2019,05,27,01,42,16.90
2019,05,27,01,43,16.90
2019,05,27,01,44,16.90
2019,05,27,01,45,16.90
2019,05,27,01,46,16.90
2019,05,27,01,47,16.90
2019,05,27,01,48,16.90
2019,05,27,01,49,16.90
2019,05,27,01,50,16.90
2019,05,27,01,51,16.90
2019,05,27,01,52,16.90
2019,05,27,01,53,16.90
2019,05,27,01,54,16.90
2019,05,27,01,55,16.90
2019,05,27,01,56,16.90
2019,05,27,01,57,16.90
2019,05,27,01,58,16.90
2019,05,27,01,59,16.90
2019,05,27,02,00,16.90
2019,05,27,02,01,16.90
2019,05,27,02,02,16.90
2019,05,27,02,03,16.90
2019,05,27,02,04,16.90
2019,05,27,02,05,16.90
2019,05,27,02,06,16.90
2019,05,27,02,07,16.90
2019,05,27,02,08,16.90
2019,05,27,02,09,16.90
2019,05,27,02,10,16.90
2019,05,27,02,11,16.80
2019,05,27,02,12,16.80
2019,05,27,02,13,16.80
2019,05,27,02,14,16.80
2019,05,27,02,15,16.80
2019,05,27,02,16,16.80
2019,05,27,02,17,16.80
2019,05,27,02,18,16.70
2019,05,27,02,19,16.70
2019,05,27,02,20,16.70
2019,05,27,02,21,16.70
2019,05,27,02,22,16.70
2019,05,27,02,23,16.60
2019,05,27,02,24,16.60
2019,05,27,02,25,16.60
2019,05,27,02,26,16.60
2019,05,27,02,27,16.60
2019,05,27,02,28,16.60
2019,05,27,02,29,16.50
2019,05,27,02,30,16.50
2019,05,27,02,31,16.40
2019,05,27,02,32,16.40
2019,05,27,02,33,16.40
2019,05,27,02,34,16.40
2019,05,27,02,35,16.30
2019,05,27,02,36,16.30
2019,05,27,02,37,16.30
2019,05,27,02,38,16.30
2019,05,27,02,39,16.30
2019,05,27,02,40,16.30
2019,05,27,02,41,16.20
2019,05,27,02,42,16.20
2019,05,27,02,43,16.20
2019,05,27,02,44,16.10
2019,05,27,02,45,16.10
2019,05,27,02,46,16.10
2019,05,27,02,47,16.10
2019,05,27,02,48,16.00
2019,05,27,02,49,16.00
2019,05,27,02,50,16.00
2019,05,27,02,51,16.00
2019,05,27,02,52,15.90
2019,05,27,02,53,15.90
2019,05,27,02,54,15.90
2019,05,27,02,55,15.90
2019,05,27,02,56,15.90
2019,05,27,02,57,15.90
2019,05,27,02,58,15.80
2019,05,27,02,59,15.80
2019,05,27,03,00,15.80
2019,05,27,03,01,15.80
2019,05,27,03,02,15.80
2019,05,27,03,03,15.80
2019,05,27,03,04,15.80
2019,05,27,03,05,15.70
2019,05,27,03,06,15.70
2019,05,27,03,07,15.70
2019,05,27,03,08,15.70
2019,05,27,03,09,15.70
2019,05,27,03,10,15.70
2019,05,27,03,11,15.70
2019,05,27,03,12,15.70
2019,05,27,03,13,15.60
2019,05,27,03,14,15.60
2019,05,27,03,15,15.60
2019,05,27,03,16,15.60
2019,05,27,03,17,15.60
2019,05,27,03,18,15.60
2019,05,27,03,19,15.60
2019,05,27,03,20,15.60
2019,05,27,03,21,15.60
2019,05,27,03,22,15.50
2019,05,27,03,23,15.50
2019,05,27,03,24,15.50
2019,05,27,03,25,15.40
2019,05,27,03,26,15.40
2019,05,27,03,27,15.40
2019,05,27,03,28,15.40
2019,05,27,03,29,15.40
2019,05,27,03,30,15.30
2019,05,27,03,31,15.30
2019,05,27,03,32,15.30
2019,05,27,03,33,15.30
2019,05,27,03,34,15.30
2019,05,27,03,35,15.30
2019,05,27,03,36,15.30
2019,05,27,03,37,15.30
2019,05,27,03,38,15.40
2019,05,27,03,39,15.40
2019,05,27,03,40,15.30
2019,05,27,03,41,15.30
2019,05,27,03,42,15.30
2019,05,27,03,43,15.30
2019,05,27,03,44,15.30
2019,05,27,03,45,15.30
2019,05,27,03,46,15.30
2019,05,27,03,47,15.30
2019,05,27,03,48,15.20
2019,05,27,03,49,15.20
2019,05,27,03,50,15.20
2019,05,27,03,51,15.10
2019,05,27,03,52,15.10
2019,05,27,03,53,15.00
2019,05,27,03,54,15.00
2019,05,27,03,55,15.00
2019,05,27,03,56,15.00
2019,05,27,03,57,15.00
2019,05,27,03,58,15.00
2019,05,27,03,59,15.00
2019,05,27,04,00,15.00
2019,05,27,04,01,15.00
2019,05,27,04,02,15.00
2019,05,27,04,03,15.00
2019,05,27,04,04,14.90
2019,05,27,04,05,14.90
2019,05,27,04,06,14.90
2019,05,27,04,07,14.90
2019,05,27,04,08,14.90
2019,05,27,04,09,14.80
2019,05,27,04,10,14.80
2019,05,27,04,11,14.80
2019,05,27,04,12,14.80
2019,05,27,04,13,14.70
2019,05,27,04,14,14.70
2019,05,27,04,15,14.70
2019,05,27,04,16,14.70
2019,05,27,04,17,14.70
2019,05,27,04,18,14.70
2019,05,27,04,19,14.70
2019,05,27,04,20,14.70
2019,05,27,04,21,14.70
2019,05,27,04,22,14.70
2019,05,27,04,23,14.70
2019,05,27,04,24,14.70
2019,05,27,04,25,14.60
2019,05,27,04,26,14.60
2019,05,27,04,27,14.60
2019,05,27,04,28,14.60
2019,05,27,04,29,14.60
2019,05,27,04,30,14.50
2019,05,27,04,31,14.50
2019,05,27,04,32,14.50
2019,05,27,04,33,14.40
2019,05,27,04,34,14.40
2019,05,27,04,35,14.40
2019,05,27,04,36,14.30
2019,05,27,04,37,14.30
2019,05,27,04,38,14.30
2019,05,27,04,39,14.30
2019,05,27,04,40,14.20
2019,05,27,04,41,14.20
2019,05,27,04,42,14.20
2019,05,27,04,43,14.20
2019,05,27,04,44,14.10
2019,05,27,04,45,14.10
2019,05,27,04,46,14.10
2019,05,27,04,47,14.10
2019,05,27,04,48,14.00
2019,05,27,04,49,14.00
2019,05,27,04,50,14.00
2019,05,27,04,51,14.00
2019,05,27,04,52,13.90
2019,05,27,04,53,13.90
2019,05,27,04,54,13.90
2019,05,27,04,55,13.90
2019,05,27,04,56,13.90
2019,05,27,04,57,13.90
2019,05,27,04,58,13.80
2019,05,27,04,59,13.80
2019,05,27,05,00,13.80
2019,05,27,05,01,13.80
2019,05,27,05,02,13.80
2019,05,27,05,03,13.80
2019,05,27,05,04,13.80
2019,05,27,05,05,13.80
2019,05,27,05,06,13.80
2019,05,27,05,07,13.80
2019,05,27,05,08,13.80
2019,05,27,05,09,13.70
2019,05,27,05,10,13.70
2019,05,27,05,11,13.70
2019,05,27,05,12,13.70
2019,05,27,05,13,13.70
2019,05,27,05,14,13.70
2019,05,27,05,15,13.70
2019,05,27,05,16,13.70
2019,05,27,05,17,13.70
2019,05,27,05,18,13.70
2019,05,27,05,19,13.70
2019,05,27,05,20,13.60
2019,05,27,05,21,13.60
2019,05,27,05,22,13.60
2019,05,27,05,23,13.60
2019,05,27,05,24,13.60
2019,05,27,05,25,13.60
2019,05,27,05,26,13.60
2019,05,27,05,27,13.60
2019,05,27,05,28,13.60
2019,05,27,05,29,13.60
2019,05,27,05,30,13.60
2019,05,27,05,31,13.60
2019,05,27,05,32,13.60
2019,05,27,05,33,13.60
2019,05,27,05,34,13.60
2019,05,27,05,35,13.60
2019,05,27,05,36,13.60
2019,05,27,05,37,13.60
2019,05,27,05,38,13.60
2019,05,27,05,39,13.60
2019,05,27,05,40,13.60
2019,05,27,05,41,13.60
2019,05,27,05,42,13.60
2019,05,27,05,43,13.60
2019,05,27,05,44,13.70
2019,05,27,05,45,13.70
2019,05,27,05,46,13.70
2019,05,27,05,47,13.70
2019,05,27,05,48,13.70
2019,05,27,05,49,13.70
2019,05,27,05,50,13.70
2019,05,27,05,51,13.80
2019,05,27,05,52,13.80
2019,05,27,05,53,13.80
2019,05,27,05,54,13.80
2019,05,27,05,55,13.80
2019,05,27,05,56,13.80
2019,05,27,05,57,13.90
2019,05,27,05,58,13.90
2019,05,27,05,59,13.90
2019,05,27,06,00,13.90
2019,05,27,06,01,13.90
2019,05,27,06,02,13.90
2019,05,27,06,03,13.90
2019,05,27,06,04,13.90
2019,05,27,06,05,13.90
2019,05,27,06,06,14.00
2019,05,27,06,07,14.00
2019,05,27,06,08,14.00
2019,05,27,06,09,14.00
2019,05,27,06,10,14.00
2019,05,27,06,11,14.10
2019,05,27,06,12,14.10
2019,05,27,06,13,14.10
2019,05,27,06,14,14.10
2019,05,27,06,15,14.10
2019,05,27,06,16,14.20
2019,05,27,06,17,14.20
2019,05,27,06,18,14.20
2019,05,27,06,19,14.20
2019,05,27,06,20,14.30
2019,05,27,06,21,14.30
2019,05,27,06,22,14.30
2019,05,27,06,23,14.30
2019,05,27,06,24,14.30
2019,05,27,06,25,14.30
2019,05,27,06,26,14.30
2019,05,27,06,27,14.30
2019,05,27,06,28,14.30
2019,05,27,06,29,14.30
2019,05,27,06,30,14.30
2019,05,27,06,31,14.30
2019,05,27,06,32,14.30
2019,05,27,06,33,14.40
2019,05,27,06,34,14.40
2019,05,27,06,35,14.40
2019,05,27,06,36,14.50
2019,05,27,06,37,14.60
2019,05,27,06,38,14.60
2019,05,27,06,39,14.60
2019,05,27,06,40,14.70
2019,05,27,06,41,14.80
2019,05,27,06,42,14.80
2019,05,27,06,43,14.80
2019,05,27,06,44,14.90
2019,05,27,06,45,15.00
2019,05,27,06,46,15.00
2019,05,27,06,47,15.00
2019,05,27,06,48,15.10
2019,05,27,06,49,15.30
2019,05,27,06,50,15.30
2019,05,27,06,51,15.50
2019,05,27,06,52,15.60
2019,05,27,06,53,15.70
2019,05,27,06,54,15.80
2019,05,27,06,55,15.80
2019,05,27,06,56,15.90
2019,05,27,06,57,15.90
2019,05,27,06,58,15.90
2019,05,27,06,59,16.00
2019,05,27,07,00,16.00
2019,05,27,07,01,16.10
2019,05,27,07,02,16.10
2019,05,27,07,03,16.20
2019,05,27,07,04,16.20
2019,05,27,07,05,16.30
2019,05,27,07,06,16.40
2019,05,27,07,07,16.50
2019,05,27,07,08,16.60
2019,05,27,07,09,16.70
2019,05,27,07,10,16.80
2019,05,27,07,11,16.80
2019,05,27,07,12,16.90
2019,05,27,07,13,17.00
2019,05,27,07,14,17.00
2019,05,27,07,15,17.10
2019,05,27,07,16,17.10
2019,05,27,07,17,17.10
2019,05,27,07,18,17.10
2019,05,27,07,19,17.10
2019,05,27,07,20,17.10
2019,05,27,07,21,17.10
2019,05,27,07,22,17.20
2019,05,27,07,23,17.20
2019,05,27,07,24,17.20
2019,05,27,07,25,17.20
2019,05,27,07,26,17.20
2019,05,27,07,27,17.30
2019,05,27,07,28,17.30
2019,05,27,07,29,17.30
2019,05,27,07,30,17.50
2019,05,27,07,31,17.60
2019,05,27,07,32,17.80
2019,05,27,07,33,17.90
2019,05,27,07,34,18.00
2019,05,27,07,35,18.10
2019,05,27,07,36,18.30
2019,05,27,07,37,18.40
2019,05,27,07,38,18.50
2019,05,27,07,39,18.60
2019,05,27,07,40,18.70
2019,05,27,07,41,18.80
2019,05,27,07,42,18.80
2019,05,27,07,43,18.80
2019,05,27,07,44,18.70
2019,05,27,07,45,18.70
2019,05,27,07,46,18.70
2019,05,27,07,47,18.70
2019,05,27,07,48,18.80
2019,05,27,07,49,18.80
2019,05,27,07,50,18.90
2019,05,27,07,51,18.90
2019,05,27,07,52,18.90
2019,05,27,07,53,18.90
2019,05,27,07,54,19.00
2019,05,27,07,55,19.10
2019,05,27,07,56,19.10
2019,05,27,07,57,19.20
2019,05,27,07,58,19.10
2019,05,27,07,59,19.10
2019,05,27,08,00,19.20
2019,05,27,08,01,19.20
2019,05,27,08,02,19.30
2019,05,27,08,03,19.30
2019,05,27,08,04,19.40
2019,05,27,08,05,19.40
2019,05,27,08,06,19.40
2019,05,27,08,07,19.40
2019,05,27,08,08,19.50
2019,05,27,08,09,19.60
2019,05,27,08,10,19.70
2019,05,27,08,11,19.70
2019,05,27,08,12,19.80
2019,05,27,08,13,19.90
2019,05,27,08,14,20.00
2019,05,27,08,15,20.00
2019,05,27,08,16,20.10
2019,05,27,08,17,20.20
2019,05,27,08,18,20.20
2019,05,27,08,19,20.30
2019,05,27,08,20,20.30
2019,05,27,08,21,20.40
2019,05,27,08,22,20.40
2019,05,27,08,23,20.50
2019,05,27,08,24,20.60
2019,05,27,08,25,20.70
2019,05,27,08,26,20.70
2019,05,27,08,27,20.80
2019,05,27,08,28,20.90
2019,05,27,08,29,21.00
2019,05,27,08,30,21.00
2019,05,27,08,31,21.00
2019,05,27,08,32,21.10
2019,05,27,08,33,21.00
2019,05,27,08,34,21.10
2019,05,27,08,35,21.10
2019,05,27,08,36,21.10
2019,05,27,08,37,21.00
2019,05,27,08,38,21.00
2019,05,27,08,39,21.00
2019,05,27,08,40,20.90
2019,05,27,08,41,20.80
2019,05,27,08,42,20.70
2019,05,27,08,43,20.70
2019,05,27,08,44,20.60
2019,05,27,08,45,20.60
2019,05,27,08,46,20.50
2019,05,27,08,47,20.40
2019,05,27,08,48,20.20
2019,05,27,08,49,20.10
2019,05,27,08,50,20.00
2019,05,27,08,51,19.90
2019,05,27,08,52,19.80
2019,05,27,08,53,19.80
2019,05,27,08,54,19.80
2019,05,27,08,55,19.70
2019,05,27,08,56,19.70
2019,05,27,08,57,19.70
2019,05,27,08,58,19.70
2019,05,27,08,59,19.70
2019,05,27,09,00,19.80
2019,05,27,09,01,19.80
2019,05,27,09,02,19.80
2019,05,27,09,03,19.80
2019,05,27,09,04,19.80
2019,05,27,09,05,19.70
2019,05,27,09,06,19.60
2019,05,27,09,07,19.50
2019,05,27,09,08,19.40
2019,05,27,09,09,19.40
2019,05,27,09,10,19.40
2019,05,27,09,11,19.30
2019,05,27,09,12,19.20
2019,05,27,09,13,19.10
2019,05,27,09,14,19.10
2019,05,27,09,15,18.90
2019,05,27,09,16,18.90
2019,05,27,09,17,18.80
2019,05,27,09,18,18.80
2019,05,27,09,19,18.70
2019,05,27,09,20,18.80
2019,05,27,09,21,18.70
2019,05,27,09,22,18.70
2019,05,27,09,23,18.70
2019,05,27,09,24,18.70
2019,05,27,09,25,18.80
2019,05,27,09,26,18.80
2019,05,27,09,27,18.80
2019,05,27,09,28,18.80
2019,05,27,09,29,18.90
2019,05,27,09,30,18.90
2019,05,27,09,31,18.90
2019,05,27,09,32,19.00
2019,05,27,09,33,19.00
2019,05,27,09,34,19.00
2019,05,27,09,35,19.00
2019,05,27,09,36,19.00
2019,05,27,09,37,19.10
2019,05,27,09,38,19.10
2019,05,27,09,39,19.00
2019,05,27,09,40,19.00
2019,05,27,09,41,19.00
2019,05,27,09,42,19.00
2019,05,27,09,43,19.00
2019,05,27,09,44,18.90
2019,05,27,09,45,18.90
2019,05,27,09,46,18.90
2019,05,27,09,47,18.90
2019,05,27,09,48,18.80
2019,05,27,09,49,18.80
2019,05,27,09,50,18.80
2019,05,27,09,51,18.80
2019,05,27,09,52,18.80
2019,05,27,09,53,18.90
2019,05,27,09,54,18.90
2019,05,27,09,55,18.90
2019,05,27,09,56,19.00
2019,05,27,09,57,19.10
2019,05,27,09,58,19.10
2019,05,27,09,59,19.20
2019,05,27,10,00,19.20
2019,05,27,10,01,19.20
2019,05,27,10,02,19.20
2019,05,27,10,03,19.30
2019,05,27,10,04,19.20
2019,05,27,10,05,19.30
2019,05,27,10,06,19.30
2019,05,27,10,07,19.20
2019,05,27,10,08,19.20
2019,05,27,10,09,19.20
2019,05,27,10,10,19.20
2019,05,27,10,11,19.20
2019,05,27,10,12,19.20
2019,05,27,10,13,19.20
2019,05,27,10,14,19.30
2019,05,27,10,15,19.30
2019,05,27,10,16,19.30
2019,05,27,10,17,19.40
2019,05,27,10,18,19.30
2019,05,27,10,19,19.40
2019,05,27,10,20,19.40
2019,05,27,10,21,19.40
2019,05,27,10,22,19.40
2019,05,27,10,23,19.40
2019,05,27,10,24,19.40
2019,05,27,10,25,19.30
2019,05,27,10,26,19.30
2019,05,27,10,27,19.30
2019,05,27,10,28,19.30
2019,05,27,10,29,19.40
2019,05,27,10,30,19.30
2019,05,27,10,31,19.20
2019,05,27,10,32,19.10
2019,05,27,10,33,19.10
2019,05,27,10,34,19.00
2019,05,27,10,35,19.10
2019,05,27,10,36,19.10
2019,05,27,10,37,19.20
2019,05,27,10,38,19.20
2019,05,27,10,39,19.20
2019,05,27,10,40,19.20
2019,05,27,10,41,19.20
2019,05,27,10,42,19.20
2019,05,27,10,43,19.10
2019,05,27,10,44,19.00
2019,05,27,10,45,19.00
2019,05,27,10,46,18.90
2019,05,27,10,47,18.90
2019,05,27,10,48,18.90
2019,05,27,10,49,18.90
2019,05,27,10,50,18.80
2019,05,27,10,51,18.90
2019,05,27,10,52,18.90
2019,05,27,10,53,18.90
2019,05,27,10,54,18.90
2019,05,27,10,55,18.90
2019,05,27,10,56,18.90
2019,05,27,10,57,19.00
2019,05,27,10,58,19.00
2019,05,27,10,59,19.10
2019,05,27,11,00,19.20
2019,05,27,11,01,19.30
2019,05,27,11,02,19.40
2019,05,27,11,03,19.50
2019,05,27,11,04,19.60
2019,05,27,11,05,19.60
2019,05,27,11,06,19.60
2019,05,27,11,07,19.50
2019,05,27,11,08,19.50
2019,05,27,11,09,19.50
2019,05,27,11,10,19.50
2019,05,27,11,11,19.40
2019,05,27,11,12,19.30
2019,05,27,11,13,19.20
2019,05,27,11,14,19.10
2019,05,27,11,15,19.10
2019,05,27,11,16,19.00
2019,05,27,11,17,19.00
2019,05,27,11,18,18.90
2019,05,27,11,19,18.90
2019,05,27,11,20,19.00
2019,05,27,11,21,19.10
2019,05,27,11,22,19.20
2019,05,27,11,23,19.30
2019,05,27,11,24,19.30
2019,05,27,11,25,19.30
2019,05,27,11,26,19.20
2019,05,27,11,27,19.20
2019,05,27,11,28,19.20
2019,05,27,11,29,19.20
2019,05,27,11,30,19.20
2019,05,27,11,31,19.20
2019,05,27,11,32,19.30
2019,05,27,11,33,19.40
2019,05,27,11,34,19.40
2019,05,27,11,35,19.50
2019,05,27,11,36,19.60
2019,05,27,11,37,19.60
2019,05,27,11,38,19.70
2019,05,27,11,39,19.70
2019,05,27,11,40,19.70
2019,05,27,11,41,19.80
2019,05,27,11,42,19.90
2019,05,27,11,43,20.00
2019,05,27,11,44,20.10
2019,05,27,11,45,20.20
2019,05,27,11,46,20.10
2019,05,27,11,47,20.10
2019,05,27,11,48,20.00
2019,05,27,11,49,19.90
2019,05,27,11,50,19.80
2019,05,27,11,51,19.70
2019,05,27,11,52,19.60
2019,05,27,11,53,19.50
2019,05,27,11,54,19.50
2019,05,27,11,55,19.50
2019,05,27,11,56,19.50
2019,05,27,11,57,19.50
2019,05,27,11,58,19.50
2019,05,27,11,59,19.50
2019,05,27,12,00,19.50
2019,05,27,12,01,19.50
2019,05,27,12,02,19.50
2019,05,27,12,03,19.50
2019,05,27,12,04,19.50
2019,05,27,12,05,19.50
2019,05,27,12,06,19.50
2019,05,27,12,07,19.60
2019,05,27,12,08,19.60
2019,05,27,12,09,19.60
2019,05,27,12,10,19.60
2019,05,27,12,11,19.60
2019,05,27,12,12,19.70
2019,05,27,12,13,19.70
2019,05,27,12,14,19.80
2019,05,27,12,15,19.90
2019,05,27,12,16,19.90
2019,05,27,12,17,20.00
2019,05,27,12,18,20.00
2019,05,27,12,19,20.10
2019,05,27,12,20,20.20
2019,05,27,12,21,20.40
2019,05,27,12,22,20.50
2019,05,27,12,23,20.60
2019,05,27,12,24,20.60
2019,05,27,12,25,20.60
2019,05,27,12,26,20.60
2019,05,27,12,27,20.70
2019,05,27,12,28,20.80
2019,05,27,12,29,20.70
2019,05,27,12,30,20.60
2019,05,27,12,31,20.50
2019,05,27,12,32,20.30
2019,05,27,12,33,20.20
2019,05,27,12,34,20.20
2019,05,27,12,35,20.20
2019,05,27,12,36,20.10
2019,05,27,12,37,20.20
2019,05,27,12,38,20.20
2019,05,27,12,39,20.20
2019,05,27,12,40,20.30
2019,05,27,12,41,20.40
2019,05,27,12,42,20.50
2019,05,27,12,43,20.60
2019,05,27,12,44,20.70
2019,05,27,12,45,20.80
2019,05,27,12,46,21.00
2019,05,27,12,47,21.10
2019,05,27,12,48,21.20
2019,05,27,12,49,21.30
2019,05,27,12,50,21.40
2019,05,27,12,51,21.40
2019,05,27,12,52,21.40
2019,05,27,12,53,21.40
2019,05,27,12,54,21.40
2019,05,27,12,55,21.60
2019,05,27,12,56,21.70
2019,05,27,12,57,21.80
2019,05,27,12,58,21.90
2019,05,27,12,59,22.10
2019,05,27,13,00,22.10
2019,05,27,13,01,22.10
2019,05,27,13,02,22.10
2019,05,27,13,03,22.00
2019,05,27,13,04,22.10
2019,05,27,13,05,22.20
2019,05,27,13,06,22.10
2019,05,27,13,07,22.00
2019,05,27,13,08,21.90
2019,05,27,13,09,21.80
2019,05,27,13,10,21.80
2019,05,27,13,11,21.80
2019,05,27,13,12,21.80
2019,05,27,13,13,21.80
2019,05,27,13,14,21.90
2019,05,27,13,15,22.00
2019,05,27,13,16,22.00
2019,05,27,13,17,22.10
2019,05,27,13,18,22.10
2019,05,27,13,19,22.10
2019,05,27,13,20,22.10
2019,05,27,13,21,22.20
2019,05,27,13,22,22.20
2019,05,27,13,23,22.40
2019,05,27,13,24,22.50
2019,05,27,13,25,22.60
2019,05,27,13,26,22.50
2019,05,27,13,27,22.50
2019,05,27,13,28,22.50
2019,05,27,13,29,22.50
2019,05,27,13,30,22.40
2019,05,27,13,31,22.40
2019,05,27,13,32,22.40
2019,05,27,13,33,22.40
2019,05,27,13,34,22.50
2019,05,27,13,35,22.60
2019,05,27,13,36,22.70
2019,05,27,13,37,22.90
2019,05,27,13,38,23.00
2019,05,27,13,39,23.10
2019,05,27,13,40,23.20
2019,05,27,13,41,23.20
2019,05,27,13,42,23.20
2019,05,27,13,43,23.20
2019,05,27,13,44,23.20
2019,05,27,13,45,23.20
2019,05,27,13,46,23.20
2019,05,27,13,47,23.20
2019,05,27,13,48,23.20
2019,05,27,13,49,23.20
2019,05,27,13,50,23.20
2019,05,27,13,51,23.30
2019,05,27,13,52,23.40
2019,05,27,13,53,23.40
2019,05,27,13,54,23.50
2019,05,27,13,55,23.70
2019,05,27,13,56,23.80
2019,05,27,13,57,24.00
2019,05,27,13,58,24.10
2019,05,27,13,59,24.10
2019,05,27,14,00,24.00
2019,05,27,14,01,24.00
2019,05,27,14,02,23.90
2019,05,27,14,03,23.80
2019,05,27,14,04,23.80
2019,05,27,14,05,23.90
2019,05,27,14,06,23.90
2019,05,27,14,07,23.90
2019,05,27,14,08,24.00
2019,05,27,14,09,24.10
2019,05,27,14,10,24.30
2019,05,27,14,11,24.40
2019,05,27,14,12,24.60
2019,05,27,14,13,24.80
2019,05,27,14,14,25.10
2019,05,27,14,15,25.30
2019,05,27,14,16,25.50
2019,05,27,14,17,25.70
2019,05,27,14,18,25.80
2019,05,27,14,19,25.90
2019,05,27,14,20,26.10
2019,05,27,14,21,26.30
2019,05,27,14,22,26.40
2019,05,27,14,23,26.40
2019,05,27,14,24,26.30
2019,05,27,14,25,26.20
2019,05,27,14,26,26.20
2019,05,27,14,27,26.10
2019,05,27,14,28,26.10
2019,05,27,14,29,26.10
2019,05,27,14,30,26.10
2019,05,27,14,31,26.20
2019,05,27,14,32,26.20
2019,05,27,14,33,26.20
2019,05,27,14,34,26.30
2019,05,27,14,35,26.30
2019,05,27,14,36,26.30
2019,05,27,14,37,26.30
2019,05,27,14,38,26.40
2019,05,27,14,39,26.40
2019,05,27,14,40,26.30
2019,05,27,14,41,26.30
2019,05,27,14,42,26.20
2019,05,27,14,43,26.10
2019,05,27,14,44,26.00
2019,05,27,14,45,26.00
2019,05,27,14,46,26.00
2019,05,27,14,47,26.10
2019,05,27,14,48,26.10
2019,05,27,14,49,26.10
2019,05,27,14,50,26.10
2019,05,27,14,51,26.10
2019,05,27,14,52,26.10
2019,05,27,14,53,26.10
2019,05,27,14,54,26.00
2019,05,27,14,55,25.90
2019,05,27,14,56,25.90
2019,05,27,14,57,25.90
2019,05,27,14,58,25.80
2019,05,27,14,59,25.80
2019,05,27,15,00,25.70
2019,05,27,15,01,25.60
2019,05,27,15,02,25.40
2019,05,27,15,03,25.30
2019,05,27,15,04,25.30
2019,05,27,15,05,25.20
2019,05,27,15,06,25.20
2019,05,27,15,07,25.20
2019,05,27,15,08,25.20
2019,05,27,15,09,25.20
2019,05,27,15,10,25.30
2019,05,27,15,11,25.30
2019,05,27,15,12,25.30
2019,05,27,15,13,25.40
2019,05,27,15,14,25.40
2019,05,27,15,15,25.40
2019,05,27,15,16,25.40
2019,05,27,15,17,25.50
2019,05,27,15,18,25.50
2019,05,27,15,19,25.60
2019,05,27,15,20,25.80
2019,05,27,15,21,25.90
2019,05,27,15,22,25.90
2019,05,27,15,23,25.80
2019,05,27,15,24,25.80
2019,05,27,15,25,25.70
2019,05,27,15,26,25.70
2019,05,27,15,27,25.60
2019,05,27,15,28,25.60
2019,05,27,15,29,25.70
2019,05,27,15,30,25.70
2019,05,27,15,31,25.80
2019,05,27,15,32,25.80
2019,05,27,15,33,25.90
2019,05,27,15,34,25.90
2019,05,27,15,35,25.90
2019,05,27,15,36,25.90
2019,05,27,15,37,25.90
2019,05,27,15,38,25.90
2019,05,27,15,39,25.90
2019,05,27,15,40,25.90
2019,05,27,15,41,25.90
2019,05,27,15,42,26.00
2019,05,27,15,43,26.10
2019,05,27,15,44,26.20
2019,05,27,15,45,26.30
2019,05,27,15,46,26.30
2019,05,27,15,47,26.20
2019,05,27,15,48,26.10
2019,05,27,15,49,26.10
2019,05,27,15,50,26.00
2019,05,27,15,51,26.00
2019,05,27,15,52,26.00
2019,05,27,15,53,26.10
2019,05,27,15,54,26.10
2019,05,27,15,55,26.20
2019,05,27,15,56,26.20
2019,05,27,15,57,26.30
2019,05,27,15,58,26.40
2019,05,27,15,59,26.40
2019,05,27,16,00,26.40
2019,05,27,16,01,26.40
2019,05,27,16,02,26.50
2019,05,27,16,03,26.50
2019,05,27,16,04,26.50
2019,05,27,16,05,26.60
2019,05,27,16,06,26.60
2019,05,27,16,07,26.60
2019,05,27,16,08,26.60
2019,05,27,16,09,26.60
2019,05,27,16,10,26.60
2019,05,27,16,11,26.60
2019,05,27,16,12,26.70
2019,05,27,16,13,26.70
2019,05,27,16,14,26.80
2019,05,27,16,15,26.80
2019,05,27,16,16,26.90
2019,05,27,16,17,27.00
2019,05,27,16,18,27.10
2019,05,27,16,19,27.20
2019,05,27,16,20,27.30
2019,05,27,16,21,27.40
2019,05,27,16,22,27.50
2019,05,27,16,23,27.60
2019,05,27,16,24,27.60
2019,05,27,16,25,27.80
2019,05,27,16,26,27.90
2019,05,27,16,27,28.00
2019,05,27,16,28,28.10
2019,05,27,16,29,28.20
2019,05,27,16,30,28.30
2019,05,27,16,31,28.30
2019,05,27,16,32,28.30
2019,05,27,16,33,28.20
2019,05,27,16,34,28.10
2019,05,27,16,35,28.10
2019,05,27,16,36,28.00
2019,05,27,16,37,28.00
2019,05,27,16,38,28.00
2019,05,27,16,39,28.00
2019,05,27,16,40,27.90
2019,05,27,16,41,27.90
2019,05,27,16,42,27.80
2019,05,27,16,43,27.90
2019,05,27,16,44,27.90
2019,05,27,16,45,28.00
2019,05,27,16,46,28.10
2019,05,27,16,47,28.10
2019,05,27,16,48,28.20
2019,05,27,16,49,28.20
2019,05,27,16,50,28.20
2019,05,27,16,51,28.20
2019,05,27,16,52,28.20
2019,05,27,16,53,28.10
2019,05,27,16,54,28.00
2019,05,27,16,55,27.90
2019,05,27,16,56,27.80
2019,05,27,16,57,27.70
2019,05,27,16,58,27.70
2019,05,27,16,59,27.70
2019,05,27,17,00,27.70
2019,05,27,17,01,27.70
2019,05,27,17,02,27.70
2019,05,27,17,03,27.80
2019,05,27,17,04,27.80
2019,05,27,17,05,27.80
2019,05,27,17,06,27.80
2019,05,27,17,07,27.70
2019,05,27,17,08,27.70
2019,05,27,17,09,27.70
2019,05,27,17,10,27.80
2019,05,27,17,11,27.80
2019,05,27,17,12,27.80
2019,05,27,17,13,27.80
2019,05,27,17,14,27.80
2019,05,27,17,15,27.80
2019,05,27,17,16,27.80
2019,05,27,17,17,27.80
2019,05,27,17,18,27.80
2019,05,27,17,19,27.80